Airfield :
LOGIN :

Register | Disclaimer

   EN    FR    IT 

 










Legend :    VFR   Marginal VFR   IFR   Intensive IFR   Very Intensive IFR
Visi :
Ceiling :
>= 8 km
>= 3000ft
5 to 8 km
1000 to 3000 ft
1500m to 5 km
500 to 1000 ft
800 to 1500m
200 to 500 ft
< 800m
< 200 ft
Symbols :   Thunderstorms  Fog  Heavy snow  Heavy precipitations  Wind > 20 kt
SIGMETs :     Misc.  Thunderstorms  Icing  Turbulence  Mountain Waves  Volcanic Ashes







- Airport Elevation : 1460 ft


LSMA - Alpnach

CURRENT METAR :
  • 180750Z AUTO 19003KT 150V230 9999NDV SCT021 BKN028 BKN051 19/15 Q1022 RMK

EXPIRED METARs :
  • 180720Z AUTO 21003KT 170V240 9999NDV SCT020 BKN029 OVC033 19/16 Q1022 RMK
  • 180650Z AUTO 18003KT 9999NDV FEW017 OVC020 18/15 Q1022 RMK
  • 180620Z AUTO VRB01KT 9999NDV OVC022 18/15 Q1022 RMK
  • 180550Z AUTO 20002KT 9999NDV BKN026 OVC033 17/15 Q1022 RMK
  • 180520Z AUTO 22002KT 9999NDV BKN028 OVC035 17/15 Q1022 RMK

Expired Forecast.
No reported NOTAMs for that airfield.



MET'MAP, your aeronautical weather chart ! - Copyright ORBIFLY December 2007 - Disclaimer

ORBIFLY MET'MAP TEAM :

Programming & Development : Alexandra Zaïnal
Concept & Development : Baudouin d'Aumeries
Co-Development & Prog : Marc-Olivier Méhu
Technical & hardware support : Manuel Goepfert

Contact : metmap@orbifly.com




SOURCES & CREDITS :

   NOAA